Regional Weather Roundup
Issued by NWS

Home | Current Version | Previous Version | Graphics & Text | Print | Product List | Glossary On
Versions: 1 2 3 4 5 6 7 8 9 10 11 12 13 14 15 16 17 18 19 20 21 22 23 24 25 26 27 28 29 30 31 32 33 34 35 36 37 38 39 40 41 42 43 44 45 46 47 48 49 50
000
ASUS43 KOAX 270602
RWRNE

WEATHER ROUNDUP FOR NEBRASKA
NATIONAL WEATHER SERVICE OMAHA NE
100 AM CDT WED JUL 27 2016

NOTES: SATELLITE DATA IS BEING USED TO AUGMENT CLOUD COVER ABOVE
       12000 FEET.
       "FAIR" INDICATES FEW OR NO CLOUDS BELOW 12,000 FEET WITH NO
       SIGNIFICANT WEATHER AND/OR OBSTRUCTIONS TO VISIBILITY.

  * THESE STATIONS DO NOT REPORT WEATHER SUCH AS RAIN...SNOW OR FOG.

NEZ001>004-019>022-054>056-270700-
NEBRASKA PANHANDLE

CITY           SKY/WX    TMP DP  RH WIND       PRES   REMARKS
SCOTTSBLUFF    CLOUDY    67  56  67 SW8       30.08R
6HR MIN TEMP:  67; 6HR MAX TEMP:  92; 6HR PCP: TRACE;

ALLIANCE       MOCLDY    65  58  78 E9        30.07R
6HR MIN TEMP:  64; 6HR MAX TEMP:  85; 6HR PCP: TRACE;

CHADRON        CLOUDY    65  60  84 CALM      30.06S
6HR MIN TEMP:  64; 6HR MAX TEMP:  96; 6HR PCP:  0.24;

SIDNEY         CLOUDY    73  50  44 E8        30.14R
6HR MIN TEMP:  66; 6HR MAX TEMP:  93;

$$

NEZ057>060-069>072-079>082-270700-
SOUTHWEST NEBRASKA

CITY           SKY/WX    TMP DP  RH WIND       PRES   REMARKS
NORTH PLATTE   LGT RAIN  63  58  83 NE20G28   30.12F
6HR MIN TEMP:  63; 6HR MAX TEMP:  86; 6HR PCP: TRACE;

IMPERIAL       CLOUDY    70  58  65 NW6       30.07R
6HR MIN TEMP:  67; 6HR MAX TEMP:  89;

LEXINGTON      TSTM      62  60  92 N29G64    30.19R VSB 3/4
MCCOOK         CLOUDY    77  65  66 SE6       30.03F
6HR MIN TEMP:  77; 6HR MAX TEMP:  88;

OGALLALA       CLOUDY    74  64  69 E10G17    30.09R
$$

NEZ005>010-023>029-035>040-094-270700-
NORTH CENTRAL NEBRASKA

CITY           SKY/WX    TMP DP  RH WIND       PRES   REMARKS
VALENTINE      CLOUDY    66  65  96 MISG      29.97F
6HR MIN TEMP:  58; 6HR MAX TEMP:  92; 6HR PCP:  1.18;

AINSWORTH      RAIN      61  61 100 E23       30.10F
BROKEN BOW     TSTM      62  61  96 N18G29    30.11F
6HR MIN TEMP:  62; 6HR MAX TEMP:  84; 6HR PCP:  0.60;

O`NEILL        TSTM      65  63  93 N22       30.11R
ORD              N/A    N/A N/A N/A MISG        N/A  THUNDER
THEDFORD       CLOUDY    65  61  85 SE7       30.10R
$$

NEZ041-046>049-061>064-073>077-083>087-270700-
SOUTH CENTRAL NEBRASKA

CITY           SKY/WX    TMP DP  RH WIND       PRES   REMARKS
GRAND ISLAND   PTCLDY    72  66  81 S8        30.02F
6HR MIN TEMP:  72; 6HR MAX TEMP:  86;

AURORA         CLOUDY    68  67  96 SE6       30.03F
HASTINGS       PTCLDY    72  64  76 S6        30.05R
6HR MIN TEMP:  72; 6HR MAX TEMP:  87;

HEBRON         CLEAR     68  65  90 SE5       30.01F
HOLDREGE       PTCLDY    71  66  84 S7        30.04S
KEARNEY *      CLOUDY    72  64  78 SE8       30.05R
YORK           MOCLDY    68  64  88 CALM      30.03F
$$

NEZ011>018-030>034-042>045-270700-
NORTHEAST NEBRASKA

CITY           SKY/WX    TMP DP  RH WIND       PRES   REMARKS
NORFOLK        CLOUDY    72  63  73 S10       30.00F
6HR MIN TEMP:  70; 6HR MAX TEMP:  83;

ALBION         MOCLDY    71  64  79 S5        30.05R
BLAIR          PTCLDY    72  66  83 S3        30.02S
FREMONT        PTCLDY    71  64  81 SE3       30.01S
TEKAMAH        PTCLDY    68  65  90 CALM      30.00S
6HR MIN TEMP:  67; 6HR MAX TEMP:  84;

WAYNE          MOCLDY    70  67  91 S7        30.00F
$$

NEZ050>053-065>068-078-088>093-270700-
SOUTHEAST NEBRASKA

CITY           SKY/WX    TMP DP  RH WIND       PRES   REMARKS
LINCOLN        CLEAR     74  64  71 CALM      30.02F
6HR MIN TEMP:  73; 6HR MAX TEMP:  85;

OMAHA EPPLEY   PTCLDY    75  66  73 SE5       30.00F
6HR MIN TEMP:  74; 6HR MAX TEMP:  85;

BEATRICE       CLEAR     72  66  83 CALM      30.02F
FALLS CITY     CLEAR     70  68  93 CALM      30.00F
6HR MIN TEMP:  70; 6HR MAX TEMP:  84;

NEBRASKA CITY  CLEAR     71  66  82 SE3       30.01F
PLATTSMOUTH    CLEAR     70  68  95 E5        30.02S
$$

NEZ044-045-051>053-067-270700-
OMAHA AREA

CITY           SKY/WX    TMP DP  RH WIND       PRES   REMARKS
OMAHA EPPLEY   PTCLDY    75  66  73 SE5       30.00F
6HR MIN TEMP:  74; 6HR MAX TEMP:  85;

BLAIR          PTCLDY    72  66  83 S3        30.02S
FREMONT        PTCLDY    71  64  81 SE3       30.01S
MILLARD        CLOUDY    71  68  90 CALM      30.01S
OFFUTT AFB     CLEAR     67  67 100 E3        30.00F
PLATTSMOUTH    CLEAR     70  68  95 E5        30.02S
WAHOO          FAIR      68  65  91 CALM      30.01S
$$



USA.gov is the U.S. government's official web portal to all federal, state and local government web resources and services.